| time (UTC) | temp F | wind direction | speed MPH | gust MPH | rain 1hr in | rain 24hr in | rain mn in | humidity % | barometer mb |
| 20260507191959 | 64 | 161 | 0.0 | 2.0 | 0.00 | 0.00 | 0.00 | 74 | 1014.2 |
| 20260507191001 | 64 | 161 | 1.0 | 2.0 | 0.00 | 0.00 | 0.00 | 73 | 1014.1 |
| 20260507190003 | 65 | 161 | 1.0 | 3.0 | 0.00 | 0.00 | 0.00 | 73 | 1014.1 |
| 20260507184959 | 65 | 161 | 1.0 | 3.0 | 0.00 | 0.00 | 0.00 | 72 | 1014.0 |
| 20260507184001 | 65 | 161 | 0.0 | 3.0 | 0.00 | 0.00 | 0.00 | 72 | 1014.0 |
| 20260507183000 | 66 | 161 | 1.0 | 3.0 | 0.00 | 0.00 | 0.00 | 71 | 1013.9 |
| 20260507182002 | 66 | 161 | 1.0 | 3.0 | 0.00 | 0.00 | 0.00 | 71 | 1013.9 |
| 20260507181001 | 66 | 161 | 2.0 | 7.0 | 0.00 | 0.00 | 0.00 | 71 | 1013.6 |
| 20260507180004 | 66 | 167 | 2.0 | 7.0 | 0.00 | 0.00 | 0.00 | 72 | 1013.5 |
| 20260507174959 | 66 | 140 | 3.0 | 7.0 | 0.00 | 0.00 | 0.00 | 73 | 1013.4 |
| 20260507174002 | 66 | 153 | 2.0 | 5.0 | 0.00 | 0.00 | 0.00 | 74 | 1013.3 |
| 20260507172959 | 66 | 165 | 3.0 | 9.0 | 0.00 | 0.00 | 0.00 | 75 | 1013.3 |
| 20260507172004 | 66 | 160 | 4.0 | 12.0 | 0.00 | 0.00 | 0.00 | 77 | 1013.3 |
| 20260507171000 | 66 | 155 | 3.0 | 10.0 | 0.00 | 0.00 | 0.00 | 78 | 1013.3 |
| 20260507170006 | 66 | 167 | 3.0 | 6.0 | 0.00 | 0.00 | 0.00 | 79 | 1013.3 |
| 20260507164959 | 67 | 288 | 3.0 | 7.0 | 0.00 | 0.00 | 0.00 | 78 | 1013.4 |
| 20260507164001 | 67 | 133 | 3.0 | 8.0 | 0.00 | 0.00 | 0.00 | 74 | 1013.3 |
| 20260507162959 | 67 | 228 | 2.0 | 8.0 | 0.00 | 0.00 | 0.00 | 71 | 1013.2 |
| 20260507162001 | 67 | 18 | 3.0 | 6.0 | 0.00 | 0.00 | 0.00 | 66 | 1013.2 |
| 20260507160959 | 67 | 32 | 2.0 | 9.0 | 0.00 | 0.00 | 0.00 | 62 | 1013.3 |
| 20260507160004 | 67 | 321 | 2.0 | 8.0 | 0.00 | 0.00 | 0.00 | 61 | 1013.3 |
| 20260507154958 | 67 | 20 | 2.0 | 8.0 | 0.00 | 0.00 | 0.00 | 63 | 1013.4 |
| 20260507154002 | 67 | 281 | 3.0 | 6.0 | 0.00 | 0.00 | 0.00 | 65 | 1013.5 |
| 20260507152958 | 67 | 30 | 3.0 | 6.0 | 0.00 | 0.00 | 0.00 | 64 | 1013.5 |
| 20260507150958 | 67 | 33 | 4.0 | 9.0 | 0.00 | 0.00 | 0.00 | 58 | 1013.4 |
| 20260507144958 | 67 | 14 | 3.0 | 9.0 | 0.00 | 0.00 | 0.00 | 61 | 1013.4 |
| 20260507143958 | 67 | 17 | 4.0 | 8.0 | 0.00 | 0.00 | 0.00 | 62 | 1013.6 |
| 20260507143000 | 68 | 30 | 3.0 | 9.0 | 0.00 | 0.00 | 0.00 | 65 | 1013.6 |
| 20260507141958 | 68 | 28 | 4.0 | 10.0 | 0.00 | 0.00 | 0.00 | 63 | 1013.6 |
| 20260507141000 | 69 | 13 | 4.0 | 9.0 | 0.00 | 0.00 | 0.00 | 61 | 1013.6 |
| 20260507140001 | 69 | 30 | 2.0 | 8.0 | 0.00 | 0.00 | 0.00 | 57 | 1013.5 |
| 20260507134959 | 68 | 41 | 4.0 | 8.0 | 0.00 | 0.00 | 0.00 | 62 | 1013.6 |
| 20260507133958 | 67 | 34 | 3.0 | 9.0 | 0.00 | 0.00 | 0.00 | 59 | 1013.7 |
| 20260507132958 | 68 | 19 | 4.0 | 8.0 | 0.00 | 0.00 | 0.00 | 62 | 1013.6 |
| 20260507132000 | 68 | 30 | 4.0 | 9.0 | 0.00 | 0.00 | 0.00 | 57 | 1013.7 |
| 20260507130958 | 70 | 30 | 2.0 | 8.0 | 0.00 | 0.00 | 0.00 | 58 | 1013.7 |
| 20260507130004 | 70 | 346 | 2.0 | 9.0 | 0.00 | 0.00 | 0.00 | 58 | 1013.5 |
| 20260507124958 | 69 | 44 | 4.0 | 10.0 | 0.00 | 0.00 | 0.00 | 59 | 1013.7 |
| 20260507124001 | 69 | 36 | 3.0 | 12.0 | 0.00 | 0.00 | 0.00 | 56 | 1013.5 |
| 20260507122958 | 71 | 316 | 2.0 | 6.0 | 0.00 | 0.00 | 0.00 | 58 | 1013.7 |
| 20260507122001 | 70 | 36 | 2.0 | 5.0 | 0.00 | 0.00 | 0.00 | 57 | 1013.7 |
| 20260507120003 | 69 | 20 | 4.0 | 8.0 | 0.00 | 0.00 | 0.00 | 53 | 1013.8 |
| 20260507114958 | 70 | 22 | 2.0 | 6.0 | 0.00 | 0.00 | 0.00 | 52 | 1013.8 |
| 20260507114000 | 68 | 279 | 3.0 | 9.0 | 0.00 | 0.00 | 0.00 | 56 | 1013.8 |
| 20260507112958 | 68 | 30 | 4.0 | 10.0 | 0.00 | 0.00 | 0.00 | 57 | 1013.8 |
| 20260507112000 | 69 | 40 | 3.0 | 9.0 | 0.00 | 0.00 | 0.00 | 58 | 1013.9 |
| 20260507110958 | 69 | 36 | 2.0 | 6.0 | 0.00 | 0.00 | 0.00 | 55 | 1013.9 |
| 20260507110004 | 69 | 15 | 2.0 | 9.0 | 0.00 | 0.00 | 0.00 | 57 | 1014.0 |
| 20260507104958 | 69 | 236 | 2.0 | 6.0 | 0.00 | 0.00 | 0.00 | 60 | 1014.1 |
| 20260507102958 | 70 | 71 | 2.0 | 5.0 | 0.00 | 0.00 | 0.00 | 55 | 1014.0 |
| 20260507100958 | 70 | 36 | 3.0 | 6.0 | 0.00 | 0.00 | 0.00 | 54 | 1014.0 |
| 20260507094000 | 70 | 309 | 1.0 | 4.0 | 0.00 | 0.00 | 0.00 | 56 | 1014.0 |
| 20260507092958 | 69 | 68 | 1.0 | 3.0 | 0.00 | 0.00 | 0.00 | 58 | 1014.0 |
| 20260507092002 | 69 | 80 | 1.0 | 4.0 | 0.00 | 0.00 | 0.00 | 57 | 1014.0 |
| 20260507090958 | 70 | 190 | 1.0 | 3.0 | 0.00 | 0.00 | 0.00 | 58 | 1013.9 |
| 20260507090004 | 68 | 82 | 1.0 | 3.0 | 0.00 | 0.00 | 0.00 | 60 | 1014.0 |
| 20260507084958 | 67 | 44 | 1.0 | 4.0 | 0.00 | 0.00 | 0.00 | 61 | 1014.0 |
| 20260507084000 | 67 | 52 | 1.0 | 5.0 | 0.00 | 0.00 | 0.00 | 65 | 1014.0 |
| 20260507082958 | 67 | 86 | 1.0 | 4.0 | 0.00 | 0.00 | 0.00 | 67 | 1013.9 |
| 20260507074958 | 67 | 177 | 1.0 | 3.0 | 0.00 | 0.00 | 0.00 | 60 | 1013.3 |
| 20260507074000 | 66 | 355 | 1.0 | 3.0 | 0.00 | 0.00 | 0.00 | 63 | 1013.4 |
| 20260507072958 | 66 | 300 | 0.0 | 3.0 | 0.00 | 0.00 | 0.00 | 65 | 1013.4 |
| 20260507072000 | 65 | 71 | 0.0 | 2.0 | 0.00 | 0.00 | 0.00 | 67 | 1013.3 |
| 20260507070958 | 65 | 71 | 1.0 | 3.0 | 0.00 | 0.00 | 0.00 | 69 | 1013.4 |
| 20260507070007 | 64 | 144 | 0.0 | 2.0 | 0.00 | 0.00 | 0.00 | 71 | 1013.6 |
| 20260507064958 | 63 | 144 | 0.0 | 1.0 | 0.00 | 0.00 | 0.00 | 73 | 1013.5 |
| 20260507064001 | 63 | 144 | 0.0 | 1.0 | 0.00 | 0.00 | 0.00 | 75 | 1013.5 |
| 20260507062958 | 62 | 144 | 1.0 | 3.0 | 0.00 | 0.00 | 0.00 | 78 | 1013.5 |
| 20260507062000 | 62 | 144 | 1.0 | 3.0 | 0.00 | 0.00 | 0.00 | 81 | 1013.5 |
| 20260507060958 | 61 | 144 | 0.0 | 1.0 | 0.00 | 0.00 | 0.00 | 82 | 1013.4 |
| 20260507054957 | 60 | 144 | 1.0 | 4.0 | 0.00 | 0.01 | 0.00 | 84 | 1013.3 |
| 20260507054000 | 60 | 144 | 0.0 | 1.0 | 0.00 | 0.01 | 0.00 | 85 | 1013.3 |
| 20260507052957 | 60 | 144 | 0.0 | 2.0 | 0.00 | 0.01 | 0.00 | 86 | 1013.0 |
| 20260507051959 | 60 | 144 | 0.0 | 1.0 | 0.00 | 0.01 | 0.00 | 86 | 1013.1 |
| 20260507050957 | 60 | 144 | 0.0 | 0.0 | 0.00 | 0.01 | 0.00 | 86 | 1013.0 |
| 20260507050002 | 60 | 144 | 0.0 | 0.0 | 0.00 | 0.01 | 0.00 | 86 | 1013.0 |
| 20260507042957 | 59 | 144 | 1.0 | 3.0 | 0.00 | 0.05 | 0.00 | 86 | 1012.5 |
| 20260507040957 | 59 | 144 | 1.0 | 3.0 | 0.00 | 0.05 | 0.00 | 86 | 1012.4 |
| 20260507034957 | 59 | 144 | 1.0 | 2.0 | 0.00 | 0.05 | 0.00 | 86 | 1012.2 |
| 20260507033959 | 59 | 144 | 0.0 | 2.0 | 0.00 | 0.05 | 0.00 | 86 | 1012.2 |
| 20260507032957 | 59 | 144 | 1.0 | 3.0 | 0.00 | 0.05 | 0.00 | 85 | 1012.2 |
| 20260507031959 | 60 | 144 | 1.0 | 2.0 | 0.00 | 0.05 | 0.00 | 84 | 1012.2 |
| 20260507030957 | 60 | 144 | 0.0 | 3.0 | 0.00 | 0.05 | 0.00 | 82 | 1012.2 |
| 20260507030002 | 60 | 144 | 0.0 | 0.0 | 0.00 | 0.05 | 0.00 | 81 | 1012.2 |
| 20260507024957 | 61 | 144 | 0.0 | 0.0 | 0.00 | 0.05 | 0.00 | 80 | 1012.2 |
| 20260507023959 | 61 | 144 | 0.0 | 0.0 | 0.00 | 0.05 | 0.00 | 79 | 1012.1 |
| 20260507022957 | 61 | 144 | 0.0 | 0.0 | 0.00 | 0.05 | 0.00 | 79 | 1012.0 |
| 20260507021959 | 61 | 144 | 0.0 | 0.0 | 0.00 | 0.05 | 0.00 | 80 | 1012.0 |
| 20260507020957 | 61 | 144 | 0.0 | 0.0 | 0.00 | 0.05 | 0.00 | 80 | 1012.1 |
| 20260507020003 | 61 | 144 | 0.0 | 0.0 | 0.00 | 0.05 | 0.00 | 81 | 1012.1 |
| 20260507014957 | 61 | 144 | 0.0 | 0.0 | 0.00 | 0.05 | 0.00 | 81 | 1012.1 |
| 20260507013959 | 61 | 144 | 0.0 | 0.0 | 0.00 | 0.05 | 0.00 | 81 | 1012.0 |
| 20260507012957 | 62 | 144 | 0.0 | 2.0 | 0.00 | 0.05 | 0.00 | 80 | 1012.1 |
| 20260507011959 | 62 | 144 | 0.0 | 0.0 | 0.00 | 0.05 | 0.00 | 79 | 1012.1 |
| 20260507010002 | 62 | 144 | 0.0 | 2.0 | 0.00 | 0.05 | 0.00 | 78 | 1012.1 |
| 20260507004957 | 62 | 144 | 0.0 | 0.0 | 0.00 | 0.05 | 0.00 | 78 | 1012.1 |
| 20260507003959 | 63 | 144 | 0.0 | 2.0 | 0.00 | 0.05 | 0.00 | 77 | 1012.1 |
| 20260507002957 | 63 | 144 | 0.0 | 2.0 | 0.00 | 0.05 | 0.00 | 76 | 1012.1 |
| 20260507001959 | 63 | 144 | 0.0 | 1.0 | 0.00 | 0.05 | 0.00 | 75 | 1012.2 |
| 20260507000000 | 64 | 144 | 0.0 | 1.0 | 0.00 | 0.05 | 0.00 | 73 | 1012.1 |
| 20260506234959 | 64 | 144 | 0.0 | 1.0 | 0.00 | 0.05 | 0.00 | 72 | 1012.2 |
| 20260506233957 | 64 | 144 | 0.0 | 3.0 | 0.00 | 0.05 | 0.00 | 72 | 1011.9 |
| 20260506233000 | 64 | 144 | 0.0 | 2.0 | 0.00 | 0.05 | 0.00 | 74 | 1012.1 |
| 20260506230959 | 64 | 144 | 3.0 | 7.0 | 0.00 | 0.05 | 0.00 | 74 | 1011.8 |
| 20260506230002 | 64 | 140 | 4.0 | 10.0 | 0.00 | 0.05 | 0.00 | 74 | 1012.0 |
| 20260506224000 | 64 | 133 | 3.0 | 7.0 | 0.00 | 0.06 | 0.00 | 74 | 1011.9 |
| 20260506223003 | 64 | 138 | 2.0 | 5.0 | 0.00 | 0.06 | 0.00 | 74 | 1012.0 |
| 20260506222000 | 64 | 130 | 3.0 | 7.0 | 0.00 | 0.06 | 0.00 | 74 | 1012.1 |
| 20260506221002 | 64 | 132 | 2.0 | 4.0 | 0.00 | 0.06 | 0.00 | 74 | 1012.1 |
| 20260506220006 | 64 | 131 | 1.0 | 4.0 | 0.00 | 0.06 | 0.00 | 75 | 1012.1 |
| 20260506215003 | 64 | 92 | 0.0 | 2.0 | 0.00 | 0.09 | 0.06 | 75 | 1012.2 |
| 20260506214001 | 64 | 92 | 0.0 | 2.0 | 0.00 | 0.09 | 0.06 | 75 | 1012.1 |
| 20260506213003 | 64 | 92 | 0.0 | 2.0 | 0.00 | 0.09 | 0.06 | 75 | 1012.1 |
| 20260506212000 | 64 | 92 | 0.0 | 2.0 | 0.00 | 0.09 | 0.06 | 76 | 1012.1 |
| 20260506210003 | 64 | 92 | 0.0 | 1.0 | 0.00 | 0.09 | 0.06 | 77 | 1012.2 |
| 20260506205002 | 64 | 92 | 0.0 | 2.0 | 0.00 | 0.18 | 0.06 | 77 | 1012.3 |
| 20260506203959 | 64 | 92 | 0.0 | 2.0 | 0.00 | 0.18 | 0.06 | 77 | 1012.2 |
| 20260506203002 | 64 | 92 | 0.0 | 3.0 | 0.00 | 0.18 | 0.06 | 76 | 1012.1 |
| 20260506201002 | 64 | 90 | 0.0 | 0.0 | 0.00 | 0.18 | 0.06 | 76 | 1012.1 |
| 20260506200002 | 64 | 88 | 0.0 | 1.0 | 0.00 | 0.18 | 0.06 | 76 | 1012.1 |
| 20260506193959 | 65 | 88 | 0.0 | 2.0 | 0.00 | 0.22 | 0.06 | 75 | 1011.8 |